sat.trackr.live / text

‹ back to catalog

STARLINK-2336

NORAD 47879 · 2021-021V

PAYLOAD ACTIVE UNKNOWN

§ Identity

Operator
Country
US
Launch date
2021-03-14
Launch site
AFETR
Launch vehicle
Mass (kg)
RCS (m²)

Purposes: comms

External: N2YO · Heavens-Above · Gunter

§ Orbital elements

Epoch: 2026-05-24T17:38:00.660768Z

Period
92.89 min
Inclination
53.1553°
Eccentricity
0.0002477
Mean motion
15.50216601 rev/d
Perigee alt
414.4 km
Apogee alt
417.8 km
Semi-major
6,794.2 km
B*
1.0819e-3
RAAN
279.1563°
Arg perigee
256.3974°
Mean anomaly
103.6760°
Rev number
28,800

§ Raw data

STARLINK-23361 47879U 21021V   26144.73472987  .00062177  00000+0  10819-2 0  99982 47879  53.1553 279.1563 0002477 256.3974 103.6760 15.50216601288006

JSON: /api/v1/satellites/47879 · /tle

For live sub-satellite position, see the globe view (requires WebGL).

§ Visibility from observer

Set your observer location to see the next 7 days of passes ≥ 10°. The values pass through the URL so the page stays shareable.

No JS? Fill the form by hand. The geolocation button needs JavaScript.